RASSVET-3 4

导读

RASSVET-3 4(NORAD编号68363)是俄罗斯Buro 1440公司主导的“黎明-3”(Rassvet-3)低轨互联网卫星星座中的一颗,属于2026年3月23日俄罗斯秘密发射的首批16颗“黎明-3”卫星之一。该卫星单星质量约370公斤,发射后进入近地点290公里、远地点324公里、倾角82.3度的初始轨道,后续将完成测试并转移至目标轨道,旨在提供低轨互联网服务,是俄罗斯自主建设的“星链”同类项目的正式组网卫星。

基本信息
目录编号:
68363
目录名称:
RASSVET-3 4
国际标识:
2026-061D
轨道中心:
EARTH
卫星名称:
RASSVET-3 4
卫星全名:
RASSVET-3 4
卫星状态:
已陨落 最后检测时间 2026-06-06
发射日期:
2026-03-23 UTC
国别 :
俄罗斯(独联体) (CIS)
星等 :
--
轨道信息
数据来源 国际轨道数据
星历时间: 2026-06-06T08:23:00+0800
轨道信息已过期91天
半长轴: 6539.834km
偏心率: 0.0009251
轨道倾角: 82.293°
近地点辐角 229.274°
升交点赤经 23.374°
平近点角 130.775°
近地点: 155.646km
远地点: 167.748km
周期: 87.722分钟
每日圈数: 16.415447
详细信息
使用方式:
暂无